#timestamp,LO_Frequency,Hit 
1501214415.8,286046997.2,P
1501214435.6,286046999.6,N
1501214455.4,286047001.0,N
1501214475.3,286047001.7,N
1501214495.1,286047003.6,N
1501214515.8,286047004.2,N
1501214535.7,286047001.4,N
1501214555.5,286046999.7,N
1501214575.4,286046998.8,N
1501214595.2,286046997.0,N
1501214615.0,286046996.7,N
1501214615.9,286046996.7,N
1501214635.8,286046995.0,N
1501214655.6,286046995.1,N
1501214675.4,286046997.4,N
1501214695.3,286046995.2,N
1501214715.1,286046997.4,N
1501214735.9,286046997.9,N
1501214785.7,286046995.9,E
1501214795.6,286046997.5,N
1501214815.5,286046995.1,P
1501214835.3,286046995.4,P
1501214855.2,286046997.4,N
1501214875.9,286046999.9,N
1501214895.7,286047000.3,N
1501214915.6,286046998.1,N
1501214935.4,286047001.1,N
1501214955.2,286047001.1,N
1501214975.1,286046996.9,N
1501214976.0,286046996.9,N
1501214995.8,286046999.0,N
1501215015.7,286046995.3,N
1501215035.5,286046999.5,N
1501215055.3,286046997.8,N
1501215075.2,286046996.9,N
1501215095.0,286046998.7,N
1501215095.9,286046998.7,N
1501215115.7,286046999.0,N
1501215135.6,286047000.5,N
1501215155.4,286047000.2,N
1501215175.3,286047002.8,N
1501215195.1,286047001.9,N
1501215196.0,286047001.9,N
1501215215.8,286047002.1,N
1501215235.7,286047001.9,N
1501215255.5,286047005.5,N
1501215275.4,286047007.5,P
1501215295.2,286047006.9,N
1501215315.0,286047003.5,N
1501215315.9,286047003.5,N
1501215335.8,286047002.0,N
1501215355.6,286047002.5,N
1501215375.4,286047001.1,N
1501215395.3,286047000.6,N
1501215415.1,286047000.6,N
1501215435.9,286047001.8,N
1501215455.7,286047002.9,N
1501215475.5,286047007.6,P
1501215495.4,286047006.0,N
1501215515.2,286047004.7,N
1501215535.1,286047003.8,N
1501215536.0,286047003.8,N
1501215555.8,286047003.0,N
1501215575.6,286047003.1,N
1501215595.5,286047005.7,P
1501215615.3,286046998.3,N
1501215635.1,286047000.3,N
1501215655.9,286047002.0,N
1501215675.7,286047001.8,N
1501215695.6,286047001.9,N
1501215715.4,286047002.7,N
1501215735.2,286046998.6,N
1501215755.1,286046999.4,N
1501215756.0,286046999.4,N
1501215775.8,286047001.2,N
1501215795.6,286046999.7,N
1501215815.5,286047000.2,N
1501215835.3,286047001.5,N
1501215855.2,286047003.3,N
1501215875.9,286047005.8,N
1501215895.7,286047004.4,N
1501215915.6,286047001.8,N
1501215935.4,286046998.3,N
1501215955.2,286046994.9,N
1501215975.1,286046996.7,N
1501215976.0,286046996.7,N
1501215995.8,286046996.9,N
1501216015.7,286047001.2,N
1501216035.5,286046996.7,N
1501216055.3,286046996.4,N
1501216075.2,286046993.6,N
1501216095.0,286046993.4,N
1501216095.9,286046993.4,N
1501216115.8,286046999.4,N
1501216135.6,286047002.4,N
1501216155.4,286047000.1,N
1501216175.3,286047001.9,N
1501216195.1,286047000.8,N
1501216215.8,286046998.1,N
1501216235.7,286046999.3,N
1501216255.5,286046999.2,N
1501216275.4,286046993.6,N
1501216295.2,286046993.3,N
1501216315.0,286046993.8,N
1501216315.9,286046993.8,N
1501216335.8,286046994.6,N
1501216355.6,286046992.2,N
1501216375.4,286046991.0,N
1501216395.3,286046993.8,N
1501216415.1,286046994.0,N
1501216435.9,286046993.0,N
1501216455.7,286046991.2,N
1501216475.5,286046991.4,N
1501216495.4,286046990.5,N
1501216515.2,286046992.3,N
1501216535.0,286046991.7,N
1501216535.9,286046991.7,N
1501216555.8,286046994.2,N
1501216575.6,286046992.9,N
1501216595.5,286046988.5,P
1501216615.3,286046995.4,N
1501216635.1,286046998.0,N
1501216655.9,286046995.4,N
1501216675.7,286046997.3,N
1501216695.6,286046999.6,N
1501216715.4,286046998.5,N
1501216735.2,286047000.1,N
1501216755.1,286047000.3,N
1501216756.0,286047000.3,N
1501216775.8,286047001.2,N
1501216795.6,286046996.8,N
1501216815.5,286047001.0,N
1501216835.3,286047000.9,N
1501216855.2,286047000.5,N
1501216875.9,286047000.0,N
1501216895.7,286046999.8,N
1501216915.6,286046998.3,N
1501216935.4,286046998.8,N
1501216955.2,286046997.1,N
1501216975.1,286046995.1,N
1501216976.0,286046995.1,N
1501216995.8,286046999.4,N
1501217015.7,286047002.5,N
1501217035.5,286047001.7,N
1501217055.3,286047002.6,N
1501217075.2,286047001.2,N
1501217095.0,286047000.3,N
1501217095.9,286047000.3,N
1501217115.8,286046996.5,N
1501217135.6,286046999.3,N
1501217155.4,28601501217195.3,286047000.3,P
1501217215.1,286047001.0,P
1501217235.9,286046998.6,P
1501217255.7,286047000.8,N
1501217275.6,286047000.6,N
1501217295.4,286047001.9,N
1501217315.2,286047002.5,N
1501217335.1,286047003.9,P
1501217336.0,286047003.9,N
1501217355.8,286047001.9,N
1501217375.7,286047003.7,N
1501217395.5,286047004.4,P
1501217415.3,286046999.1,N
1501217435.2,286046996.1,N
1501217455.0,286046994.9,N
1501217455.9,286046994.9,N
1501217475.7,286046996.7,N
1501217495.6,286046999.8,N
1501217515.4,286046999.8,N
1501217535.3,286047001.7,N
1501217555.1,286047002.4,N
1501217556.0,286047002.4,N
1501217575.8,286047000.9,N
1501217595.7,286047001.2,N
1501217615.5,286047000.4,N
1501217635.4,286046998.7,N
1501217655.2,286047000.9,N
1501217675.0,286046999.9,N
1501217675.9,286046999.9,N
1501217695.8,286046998.2,N
1501217715.6,286046998.5,N
1501217735.4,286047000.6,N
1501217755.3,286047001.2,N
1501217775.1,286046995.5,N
1501217795.9,286046992.9,N
1501217815.7,286046991.5,P
1501217835.5,286046991.8,N
1501217855.4,286046994.7,N
1501217875.2,286046993.6,N
1501217895.1,286046990.3,P
1501217896.0,286046990.3,P
1501217915.8,286046997.4,N
1501217935.6,286046997.1,N
1501217955.5,286046996.7,N
1501217975.3,286046999.4,N
1501217995.1,286046996.5,N
